When you browse on this site, cookies collect data to enhance your experience and personalize the content and advertising you see.
Visit our Privacy Policy to learn more. By continuing to use the site, you agree to this use of cookies and data.
  • In Hungary
  • List of Countries
  • For 7 days
  • Water Temperature
  • Weather Map
  • News
  • Weather Widgets
  • user-avatar
    Login

    Hourly Weather Jhargram

    Today, 7 April, Tuesday

    Time Temperature Precipitation Wind Pressure Humidity
    00:00 +30°C° 0 mm 1 mps 752 mmHg 23%
    01:00 +29°C° 0 mm 1 mps 751 mmHg 23%
    02:00 +29°C° 0 mm 1 mps 751 mmHg 23%
    03:00 +29°C° 0 mm 1 mps 750 mmHg 23%
    04:00 +28°C° 0 mm 1 mps 751 mmHg 23%
    05:00 +28°C° 0 mm 1 mps 751 mmHg 22%
    06:00 +28°C° 0 mm 2 mps 751 mmHg 28%
    07:00 +31°C° 0 mm 2 mps 751 mmHg 24%
    08:00 +35°C° 0 mm 2 mps 752 mmHg 20%
    09:00 +37°C° 0 mm 2 mps 752 mmHg 16%
    10:00 +39°C° 0 mm 2 mps 752 mmHg 14%
    11:00 +41°C° 0 mm 2 mps 751 mmHg 12%
    12:00 +43°C° 0 mm 2 mps 751 mmHg 10%
    13:00 +44°C° 0 mm 3 mps 750 mmHg 10%
    14:00 +45°C° 0 mm 4 mps 749 mmHg 9%
    15:00 +46°C° 0 mm 5 mps 748 mmHg 8%
    16:00 +44°C° 0 mm 4 mps 748 mmHg 9%
    17:00 +43°C° 0 mm 3 mps 748 mmHg 10%
    18:00 +41°C° 0 mm 2 mps 748 mmHg 11%
    19:00 +39°C° 0 mm 3 mps 749 mmHg 21%
    20:00 +36°C° 0 mm 4 mps 749 mmHg 30%
    21:00 +34°C° 0 mm 4 mps 750 mmHg 40%
    22:00 +34°C° 0 mm 4 mps 750 mmHg 41%
    23:00 +33°C° 0 mm 4 mps 750 mmHg 41%

    Tomorrow, 8 April, Wednesday

    Time Temperature Precipitation Wind Pressure Humidity
    00:00 +33°C° 0 mm 3 mps 750 mmHg 42%
    01:00 +31°C° 0 mm 3 mps 750 mmHg 43%
    02:00 +30°C° 0 mm 3 mps 749 mmHg 44%
    03:00 +30°C° 0 mm 2 mps 749 mmHg 45%
    04:00 +29°C° 0 mm 2 mps 749 mmHg 46%
    05:00 +29°C° 0 mm 1 mps 750 mmHg 46%
    06:00 +28°C° 0 mm 1 mps 750 mmHg 47%
    07:00 +31°C° 0 mm 1 mps 750 mmHg 40%
    08:00 +34°C° 0 mm 1 mps 751 mmHg 32%
    09:00 +35°C° 0 mm 0 mps 751 mmHg 25%
    10:00 +40°C° 0 mm 1 mps 751 mmHg 21%
    11:00 +42°C° 0 mm 1 mps 751 mmHg 16%
    12:00 +45°C° 0 mm 2 mps 751 mmHg 12%
    13:00 +45°C° 0 mm 2 mps 750 mmHg 12%
    14:00 +45°C° 0 mm 2 mps 749 mmHg 12%
    15:00 +44°C° 0 mm 3 mps 748 mmHg 12%
    16:00 +43°C° 0 mm 4 mps 749 mmHg 15%
    17:00 +41°C° 0 mm 6 mps 749 mmHg 17%
    18:00 +40°C° 0 mm 7 mps 749 mmHg 20%
    19:00 +38°C° 0 mm 6 mps 750 mmHg 26%
    20:00 +35°C° 0 mm 5 mps 751 mmHg 32%
    21:00 +33°C° 0 mm 3 mps 752 mmHg 38%
    22:00 +33°C° 0 mm 4 mps 752 mmHg 36%
    23:00 +33°C° 0 mm 4 mps 751 mmHg 35%

    Day after tomorrow, 9 April, Thursday

    Time Temperature Precipitation Wind Pressure Humidity
    00:00 +33°C° 0 mm 5 mps 751 mmHg 34%
    01:00 +32°C° 0 mm 4 mps 751 mmHg 37%
    02:00 +30°C° 0 mm 3 mps 750 mmHg 39%
    03:00 +29°C° 0 mm 2 mps 750 mmHg 41%
    04:00 +29°C° 0 mm 2 mps 750 mmHg 44%
    05:00 +28°C° 0 mm 1 mps 750 mmHg 47%
    06:00 +27°C° 0 mm 1 mps 750 mmHg 50%
    07:00 +30°C° 0 mm 1 mps 751 mmHg 43%
    08:00 +33°C° 0 mm 1 mps 751 mmHg 37%
    09:00 +36°C° 0 mm 2 mps 752 mmHg 30%
    10:00 +39°C° 0 mm 2 mps 751 mmHg 26%
    11:00 +41°C° 0 mm 2 mps 751 mmHg 21%
    12:00 +43°C° 0 mm 2 mps 751 mmHg 17%
    13:00 +44°C° 0 mm 3 mps 750 mmHg 17%
    14:00 +45°C° 0 mm 5 mps 749 mmHg 18%
    15:00 +44°C° 0 mm 6 mps 748 mmHg 18%
    16:00 +40°C° 0.1 mm 5 mps 748 mmHg 23%
    17:00 +36°C° 0.1 mm 5 mps 749 mmHg 28%
    18:00 +32°C° 0.1 mm 4 mps 750 mmHg 32%
    19:00 +32°C° 0.1 mm 4 mps 751 mmHg 35%
    20:00 +30°C° 0.1 mm 4 mps 751 mmHg 38%
    21:00 +29°C° 0.1 mm 4 mps 752 mmHg 41%
    22:00 +29°C° 0 mm 4 mps 752 mmHg 53%
    23:00 +28°C° 0 mm 3 mps 752 mmHg 64%

    10 April, Friday

    Time Temperature Precipitation Wind Pressure Humidity
    00:00 +28°C° 0 mm 2 mps 752 mmHg 76%
    01:00 +28°C° 0 mm 2 mps 751 mmHg 79%
    02:00 +27°C° 0 mm 2 mps 751 mmHg 83%
    03:00 +27°C° 0 mm 2 mps 750 mmHg 86%
    04:00 +26°C° 0 mm 1 mps 751 mmHg 89%
    05:00 +26°C° 0 mm 1 mps 751 mmHg 91%
    06:00 +26°C° 0 mm 1 mps 751 mmHg 93%
    07:00 +29°C° 0 mm 1 mps 752 mmHg 76%
    08:00 +31°C° 0 mm 1 mps 752 mmHg 59%
    09:00 +35°C° 0 mm 2 mps 753 mmHg 41%
    10:00 +37°C° 0 mm 2 mps 753 mmHg 33%
    11:00 +40°C° 0 mm 2 mps 752 mmHg 25%
    12:00 +42°C° 0 mm 2 mps 752 mmHg 17%
    13:00 +43°C° 0 mm 2 mps 751 mmHg 15%
    14:00 +43°C° 0 mm 2 mps 751 mmHg 13%
    15:00 +45°C° 0 mm 2 mps 750 mmHg 10%
    16:00 +43°C° 0 mm 3 mps 750 mmHg 18%
    17:00 +41°C° 0 mm 4 mps 750 mmHg 25%
    18:00 +40°C° 0 mm 6 mps 750 mmHg 32%
    19:00 +38°C° 0 mm 6 mps 751 mmHg 42%
    20:00 +35°C° 0 mm 6 mps 751 mmHg 52%
    21:00 +33°C° 0 mm 7 mps 752 mmHg 61%
    22:00 +32°C° 0 mm 6 mps 752 mmHg 61%
    23:00 +32°C° 0 mm 5 mps 752 mmHg 61%

    11 April, Saturday

    Time Temperature Precipitation Wind Pressure Humidity
    00:00 +32°C° 0 mm 4 mps 752 mmHg 61%
    01:00 +30°C° 0 mm 4 mps 752 mmHg 63%
    02:00 +30°C° 0 mm 3 mps 752 mmHg 66%
    03:00 +29°C° 0 mm 3 mps 751 mmHg 68%
    04:00 +29°C° 0 mm 3 mps 752 mmHg 69%
    05:00 +28°C° 0 mm 3 mps 752 mmHg 70%
    06:00 +27°C° 0 mm 3 mps 752 mmHg 70%
    07:00 +30°C° 0 mm 3 mps 752 mmHg 58%
    08:00 +34°C° 0 mm 3 mps 753 mmHg 45%
    09:00 +37°C° 0 mm 3 mps 753 mmHg 32%
    10:00 +39°C° 0 mm 3 mps 753 mmHg 25%
    11:00 +42°C° 0 mm 2 mps 752 mmHg 18%
    12:00 +45°C° 0 mm 2 mps 752 mmHg 11%
    13:00 +46°C° 0 mm 2 mps 751 mmHg 10%
    14:00 +46°C° 0 mm 2 mps 750 mmHg 8%
    15:00 +47°C° 0 mm 2 mps 749 mmHg 7%
    16:00 +45°C° 0 mm 3 mps 749 mmHg 12%
    17:00 +43°C° 0 mm 4 mps 749 mmHg 16%
    18:00 +41°C° 0 mm 5 mps 749 mmHg 21%
    19:00 +40°C° 0 mm 6 mps 749 mmHg 26%
    20:00 +39°C° 0 mm 6 mps 750 mmHg 31%
    21:00 +36°C° 0 mm 7 mps 751 mmHg 36%
    22:00 +35°C° 0 mm 6 mps 751 mmHg 38%
    23:00 +34°C° 0 mm 5 mps 751 mmHg 40%

    12 April, Sunday

    Time Temperature Precipitation Wind Pressure Humidity
    00:00 +34°C° 0 mm 4 mps 751 mmHg 41%
    01:00 +33°C° 0 mm 3 mps 750 mmHg 41%
    02:00 +33°C° 0 mm 3 mps 750 mmHg 41%
    03:00 +31°C° 0 mm 3 mps 749 mmHg 40%
    04:00 +31°C° 0 mm 2 mps 749 mmHg 43%
    05:00 +30°C° 0 mm 2 mps 750 mmHg 45%
    06:00 +29°C° 0 mm 2 mps 750 mmHg 48%
    07:00 +32°C° 0 mm 2 mps 750 mmHg 40%
    08:00 +36°C° 0 mm 2 mps 751 mmHg 32%
    09:00 +38°C° 0 mm 3 mps 751 mmHg 24%
    10:00 +42°C° 0 mm 3 mps 751 mmHg 19%
    11:00 +44°C° 0 mm 4 mps 750 mmHg 15%
    12:00 +47°C° 0 mm 4 mps 750 mmHg 11%
    13:00 +48°C° 0 mm 4 mps 749 mmHg 10%
    14:00 +48°C° 0 mm 4 mps 749 mmHg 9%
    15:00 +48°C° 0 mm 4 mps 748 mmHg 8%
    16:00 +46°C° 0.1 mm 5 mps 748 mmHg 12%
    17:00 +42°C° 0.1 mm 6 mps 748 mmHg 16%
    18:00 +40°C° 0.1 mm 7 mps 748 mmHg 19%
    19:00 +38°C° 0 mm 7 mps 748 mmHg 23%
    20:00 +36°C° 0 mm 7 mps 749 mmHg 28%
    21:00 +34°C° 0 mm 7 mps 749 mmHg 32%
    22:00 +34°C° 0 mm 6 mps 749 mmHg 31%
    23:00 +34°C° 0 mm 5 mps 749 mmHg 30%
    Show more